Location: Monteux
(44.0348°N, 4.9972°E)
Time: 15:54:23
(UTC+00:00)

CZ-2C R/B - Pass Details

Date: 30 November 2020
Orbit: 705 x 907 km, 98.1° (Epoch: 17 January)

Event Time Altitude Azimuth Distance (km) Brightness Sun altitude
Rises 17:38:23 0° 147° (SSE) 3,239 6.1 -16.6°
Reaches altitude 10° 17:40:48 10° 141° (SE) 2,287 5.2 -17.0°
Maximum altitude 17:45:32 44° 71° (ENE) 1,014 3.2 -17.8°
Drops below altitude 10° 17:50:07 10° 360° (N) 2,213 5.3 -18.6°
Sets 17:52:25 0° 354° (N) 3,123 6.1 -19.0°
